Satellite-Ground Cal/Val Site Overpasses Predictions

Prediction of Satellite NPP Overpassing Cal/Val Site: Antarctic Dome C

Ground Cal/Val Site Location: Latitude: -75.10, Longitude: 123.35; Satellite-Ground Site NADIR distance within 100 km.

Table of predicted overpasses for the next 14.0 days since TLE Epoch: 12/30/2023
Interval Starting Time Ending Time Minimum Distance Time Minimum Distance (km)
1 01/01/2024 14:55:23 01/01/2024 14:55:51 01/01/2024 14:55:37 21.18
2 01/02/2024 14:36:42 01/02/2024 14:36:56 01/02/2024 14:36:49 85.72
3 01/03/2024 07:38:15 01/03/2024 07:38:42 01/03/2024 07:38:29 36.62
4 01/04/2024 07:19:29 01/04/2024 07:19:49 01/04/2024 07:19:39 73.33
5 01/06/2024 15:01:46 01/06/2024 15:02:09 01/06/2024 15:01:58 58.73
6 01/07/2024 14:42:57 01/07/2024 14:43:22 01/07/2024 14:43:09 50.43
7 01/08/2024 07:44:38 01/08/2024 07:44:58 01/08/2024 07:44:48 72.20
8 01/09/2024 07:25:46 01/09/2024 07:26:13 01/09/2024 07:25:59 35.70
9 01/11/2024 15:08:14 01/11/2024 15:08:21 01/11/2024 15:08:18 96.80
